Home   Weather   Zürich   Past weeks
Flag for Switzerland

Past Weather in Zürich, Zurich, Switzerland — Yesterday and Last 2 Weeks

Now
36 °F

Chilly.


Feels Like: 36 °F
Forecast: 56 / 33 °F
Wind: 1 mph from Northwest

Location: Zuerich-Fluntern

Current Time: Feb 20, 2019 at 7:00:31 am

Latest Report: Feb 20, 2019 at 6:00 am


Visibility: N/A

Pressure: 30.28 "Hg

Humidity: 82%

Dew Point: 31 °F

Location of ZürichLocation

Past Weather in Zürich — Graph

°F

Zürich Temperature Yesterday

Maximum temperature yesterday: 53 °F (at 3:00 pm)
Minimum temperature yesterday: 37 °F (at 7:00 am)
Average temperature yesterday: 45 °F

High & Low Weather Summary for the Past Weeks

 TemperatureHumidityPressure
High56 °F (Feb 16, 4:00 pm)100% (Feb 8, 7:00 am)30.71 "Hg (Feb 8, 7:00 am)
Low24 °F (Feb 6, 7:00 am)31% (Feb 17, 3:00 pm)29.56 "Hg (Feb 10, 4:00 pm)
Average38 °F73%30.31 "Hg
* Reported Feb 5 5:00 am — Feb 20 5:00 am, Zürich. Weather by CustomWeather, © 2019

Note: Actual official high and low records may vary slightly from our data, if they occured in-between our weather recording intervals... More about our weather records

Advertising

Zürich Weather History for the Previous 24 Hours

Scroll right to see more
 ConditionsComfort  
Time TempWeatherWind HumidityBarometerVisibility
5:00 am
Wed, Feb 20
36 °FChilly.1 mph81%30.27 "HgN/A
4:00 am38 °FChilly.1 mph77%30.25 "HgN/A
3:00 am38 °FChilly.No wind79%30.25 "HgN/A
2:00 am38 °FChilly.1 mph79%30.25 "HgN/A
1:00 am41 °FQuite cool.No wind75%30.24 "HgN/A
12:00 am42 °FQuite cool.No wind72%30.24 "HgN/A
11:00 pm
Tue, Feb 19
42 °FQuite cool.No wind72%30.23 "HgN/A
10:00 pm43 °FQuite cool.1 mph68%30.23 "HgN/A
9:00 pm46 °FCool.No wind60%30.21 "HgN/A
8:00 pm44 °FQuite cool.No wind66%30.20 "HgN/A
7:00 pm46 °FPassing clouds.1 mph63%30.19 "HgN/A
6:00 pm50 °FCool.2 mph53%30.15 "HgN/A
5:00 pm53 °FCool.5 mph49%30.15 "HgN/A
4:00 pm53 °FCool.5 mph47%30.15 "HgN/A
3:00 pm53 °FCool.5 mph46%30.16 "HgN/A
2:00 pm52 °FCool.6 mph47%30.17 "HgN/A
1:00 pm51 °FCool.5 mph48%30.19 "HgN/A
12:00 pm50 °FCool.5 mph52%30.22 "HgN/A
11:00 am47 °FCool.3 mph57%30.22 "HgN/A
10:00 am44 °FQuite cool.2 mph58%30.23 "HgN/A
9:00 am39 °FChilly.1 mph73%30.24 "HgN/A
8:00 am37 °FChilly.1 mph79%30.24 "HgN/A
7:00 am37 °FChilly.1 mph80%30.23 "HgN/A
Weather by CustomWeather, © 2019

See weather overview